www.pogodaiklimat.ru

Погода и климат >> Архив погоды >> Индия >> Андхра-Прадеш >> Карнул


ПОГОДА в Карнуле

  • Прогноз погоды в Карнуле
  • Монитор погоды в Карнуле

АРХИВ ПОГОДЫ в Карнуле

Время (UTC), дата Ветер
(напр.,м/с)
 
Видим.   Явления Облачность Т
(С)
Тd
(С)
f
(%)
Тe
(С)
Тes
(С)
Комфортность P
(гПа)
Po
(гПа)
Тmin
(С)
Tmax
(С)
R
(мм)
R24
(мм)
S
(см)
00 14.03 штиль 0 4000 м ясно +27.6 +13.0 41 +29 +29 жарко 1010.5 979.1
03 14.03 штиль 0 10 км ясно +28.2 +14.6 43 +30 +38 жарко 1014.1 982.7 +26.5 +40.1
06 14.03 ЮВ 3 10 км ясно +35.0 +6.7 17 +33 +50 жарко 1012.8 982.0
09 14.03 ЮВ 3 10 км 1/0
[Ci fib]
+39.0 +5.1 13 +36 +49 очень
жарко
1008.6 978.3
12 14.03 ЮВ 1 10 км 8/0
[Ac trans]
+37.8 +6.7 15 +35 +36 очень
жарко
1007.2 976.9 +39.6
15 14.03 ЮВ 1 4000 м 5/0
[Ac trans]
+33.6 +8.9 22 +32 +32 жарко 1010.3 979.5
18 14.03 нст 1 4000 м 6/0
[Ac trans]
+31.6 +10.9 28 +32 +32 жарко 1011.6 980.6
21 14.03 штиль 0 4000 м ясно +29.0 +12.7 37 +30 +30 жарко 1010.6 979.3
00 15.03 ЮВ 1 4000 м ясно +28.0 +9.7 32 +28 +28 жарко 1010.3 978.9
03 15.03 нст 1 10 км ясно +28.8 +10.5 32 +29 +37 жарко 1013.6 982.2 +26.8 +39.6
06 15.03 Ю 3 10 км ясно +36.4 +4.2 14 +34 +51 опасность
солнечного
удара
1012.9 982.3
09 15.03 Ю 2 10 км ясно +39.2 +7.0 14 +37 +51 опасность
солнечного
удара
1008.3 978.1
12 15.03 ЮВ 2 10 км ясно +38.0 +8.3 16 +36 +37 очень
жарко
1007.1 976.8 +39.6
15 15.03 штиль 0 4000 м ясно +33.0 +8.9 23 +32 +32 жарко 1010.5 979.6
18 15.03 ЮВ 1 4000 м ясно +30.0 +9.8 29 +30 +30 жарко 1012.5 981.2
21 15.03 штиль 0 4000 м ясно +27.0 +10.2 35 +28 +28 жарко 1010.8 979.3
00 16.03 ЮВ 1 4000 м ясно +26.0 +7.1 30 +26 +26 жарко 1011.1 979.4
03 16.03 штиль 0 10 км ясно +28.0 +6.4 25 +27 +35 жарко 1012.9 981.4 +24.2 +39.6
06 16.03 Ю 2 10 км ясно +35.6 +3.1 13 +32 +54 опасность
солнечного
удара
1012.4 981.7
09 16.03 Ю 2 10 км ясно +39.4 +6.7 14 +37 +51 опасность
солнечного
удара
1008.3 978.1
12 16.03 ЮЗ 3 10 км ясно +37.0 +8.8 18 +35 +36 очень
жарко
1007.7 977.2 +39.5
15 16.03 В 2 4000 м ясно +32.4 +11.6 28 +32 +32 жарко 1010.9 980.0
18 16.03 В 2 4000 м ясно +29.2 +11.6 34 +30 +30 жарко 1012.2 981.0
21 16.03 В 2 4000 м ясно +26.6 +16.6 54 +30 +30 душно 1011.5 980.0
00 17.03 В 2 4000 м ясно +25.0 +18.7 68 +30 +30 душно 1011.5 979.7
03 17.03 ЮВ 1 10 км ясно +25.4 +19.1 68 +30 +38 душно 1014.4 982.7 +23.8 +39.5
06 17.03 В 2 10 км ясно +34.4 +10.3 23 +34 +53 опасность
солнечного
удара
1012.7 981.9
09 17.03 ЮВ 2 10 км ясно +38.0 +12.3 22 +38 +53 опасность
солнечного
удара
1008.4 978.0
12 17.03 В 2 10 км ясно +37.0 +11.6 22 +36 +37 очень
жарко
1007.1 976.7 +38.1
15 17.03 В 2 4000 м ясно +32.0 +12.0 29 +32 +32 жарко 1009.8 978.8
18 17.03 В 2 4000 м ясно +28.6 +12.1 36 +30 +30 жарко 1010.9 979.6
21 17.03 нст 1 4000 м ясно +25.6 +16.5 57 +29 +29 душно 1010.3 978.7
00 18.03 нст 1 4000 м ясно +24.0 +17.5 67 +28 +28 душно 1010.1 978.3
03 18.03 ЮВ 2 10 км ясно +26.0 +18.1 62 +31 +37 очень
душно
1012.5 980.8 +23.4 +38.1
06 18.03 нст 1 10 км ясно +32.4 +16.2 38 +35 +60 опасность
солнечного
удара
1012.7 981.7
09 18.03 нст 1 10 км ясно +36.4 +15.0 28 +38 +56 опасность
солнечного
удара
1008.5 978.0
12 18.03 штиль 0 10 км ясно +36.8 +13.3 25 +37 +38 очень
жарко
1007.0 976.6 +38.0
15 18.03 В 1 4000 м ясно +31.6 +14.6 36 +34 +34 душно 1008.9 977.9
18 18.03 ЮВ 3 4000 м ясно +28.8 +18.9 55 +34 +34 очень
душно
1010.2 978.9
21 18.03 ЮВ 3 4000 м ясно +26.6 +18.4 61 +31 +31 душно 1008.4 977.0
00 19.03 В 1 4000 м ясно +25.4 +20.1 72 +31 +31 очень
душно
1009.5 977.9
03 19.03 В 2 10 км ясно +27.0 +19.9 65 +33 +40 очень
душно
1011.4 979.9 +24.8 +38.0
06 19.03 Ю 2 10 км ясно +34.4 +18.5 39 +39 +60 опасность
солнечного
удара
1009.6 978.9
09 19.03 Ю 2 10 км 8/4 600 м
[Cu Sc Ac trans Cs]
+38.6 +14.8 25 +40 +46 очень
душно
1004.9 974.8
12 19.03 ЮВ 2 10 км 8/4 600 м
[Cu Sc Ac trans Cs]
+37.6 +14.1 25 +38 +39 очень
жарко
1004.0 973.8 +39.5
15 19.03 штиль 0 4000 м 3/0
[Ci fib]
+33.0 +14.9 34 +35 +35 душно 1006.3 975.5
18 19.03 ЮВ 1 4000 м ясно +30.6 +20.0 53 +37 +37 очень
душно
1007.7 976.7
21 19.03 ЮВ 1 4000 м ясно +28.6 +21.1 64 +36 +36 очень
душно
1005.7 974.6
00 20.03 ЮВ 1 4000 м ясно +27.4 +20.0 64 +34 +34 очень
душно
1006.6 975.3
03 20.03 ЮВ 2 10 км 1/1 600 м
[Cu hum]
+28.0 +20.4 63 +34 +40 очень
душно
1010.0 978.6 +26.7 +39.5
06 20.03 Ю 3 10 км ясно +35.0 +18.5 38 +39 +57 опасность
солнечного
удара
1009.1 978.4
09 20.03 Ю 2 10 км 3/3 600 м
[Cu Sc]
+39.0 +14.9 24 +40 +50 очень
душно
1005.6 975.4
12 20.03 Ю 2 10 км 8/3 600 м
[Cu Sc Ac trans Ci sp]
+36.8 +15.2 28 +38 +39 очень
душно
1004.2 973.9 +39.1
15 20.03 ЮВ 2 4000 м 9/3 600 м
[Cu Sc Ac As Cs]
+34.0 +15.5 33 +36 +36 душно 1006.8 976.1
18 20.03 В 2 4000 м 8/3 600 м
[Cu Sc Ac As Cs]
+31.4 +20.9 54 +39 +39 очень
душно
1008.6 977.6
21 20.03 В 2 4000 м 8/3 600 м
[Cu Sc Ac As Cs]
+29.4 +20.3 58 +36 +36 очень
душно
1007.5 976.4

 

Местоположение метеостанции Карнул (Андхра-Прадеш, Индия): широта 15.80 долгота 78.07 высота над уровнем моря 281 м.

В архиве по умолчанию представлена погода в Карнуле за последнюю неделю. Архивные данные за месяц целиком и за предыдущие месяцы, начиная с января 2011 года, Вы можете получить, выбрав интересующий диапазон дат из раскрывающегося списка и нажав кнопку "Ввод!".


*Определитесь, кто Вы:
робот инопланетянин человек

Внимание! Время в таблицах - всемирное. Для получения местного времени необходимо прибавить поправку, которая равна 5.5 ч.

Смотрите также архив погоды в соседних городах и на ближайших метеорологических станциях:

Погода в Райчуре (Карнатака, Индия) (89 км)
Погода в Махбубнагаре (Телингана, Индия) (106 км)
Погода в Анантапуре (Андхра-Прадеш, Индия) (144 км)
Погода в Беллари (Карнатака, Индия) (149 км)
Погода в Рентчайнтале (Андхра-Прадеш, Индия) (179 км)
Погода в Налгонде (Телингана, Индия) (183 км)
Погода в Хайдарабаде (Телингана, Индия) (188 км)
Погода в Коппале (Карнатака, Индия) (212 км)
Погода в Гулбарге (Карнатака, Индия) (216 км)
Погода в Онголе (Андхра-Прадеш, Индия) (218 км)

Пояснения к столбцам:

Ветер - указаны скорость ветра в м/с - средняя за 10 мин, порывы в срок и между сроками (в фигурных скобках) и направление, откуда дует ветер: С - северный, СВ - северо-восточный, В - восточный, ЮВ - юго-восточный, Ю - южный, ЮЗ - юго-западный, З - западный, СЗ - северо-западный.
Видимость - горизонтальная дальность видимости в метрах или километрах. При видимости от 1 до 10 км при отсутствии осадков обычно наблюдается дымка, при ухудшении видимости до 1 км и менее - туман. В сухую погоду видимость может ухудшаться дымом, пылью или мглою.
Явления - указаны атмосферные явления, наблюдавшиеся в срок или в последний час перед сроком; фигурными скобками обозначены явления, наблюдавшиеся между сроками (за 1-3 часа до срока); квадратными скобками обозначены град или гололедные отложения с указанием их диаметра в мм.
Облачность - указаны через наклонную черту общая и нижняя облачность в баллах и высота нижней границы облаков в метрах; квадратными скобками обозначены формы облаков: Ci - перистые, Cs - перисто-слоистые, Cc - перисто-кучевые, Ac - высококучевые, As - высокослоистые, Sc - слоисто-кучевые, Ns - слоисто-дождевые, Cu - кучевые, Cb - кучево-дождевые. Подробнее классификацию облаков см. в Атласе облаков (PDF).
T - Температура воздуха - температура, измеренная на высоте 2 м над землей.
Td - Температура точки росы - температура, при понижении до которой содержащийся в воздухе водяной пар достигнет насыщения.
f - Относительная влажность воздуха - влажноcть воздуха, измеренная на высоте 2 м над землей.
Te - Эффективная температура - температура, которую ощущает одетый по сезону человек в тени. Характеристика душности погоды. При расчете учитывается влияние влажности воздуха и скорости ветра на теплоощущения человека.
Tes - Эффективная температура на солнце - температура, которую ощущает человек, с поправкой на солнечный нагрев. Характеристика знойности погоды. Зависит от высоты солнца над горизонтом, облачности и скорости ветра. Ночью, в пасмурную погоду, а также при ветре 12 м/с и более поправка равна нулю.
P - Атмосферное давление - приведенное к уровню моря атмосферное давление.
Po - Атмосферное давление - измеренное на уровне метеостанции атмосферное давление.
Tmin - Минимальная температура - минимум температуры воздуха на высоте 2 м над землей.
Tmax - Максимальная температура - максимум температуры воздуха на высоте 2 м над землей.
R - Количество осадков - Количество выпавших осадков за период времени, мм. При наведении курсора мыши на число - период времени, за который выпало указанное количество осадков.
R24 - Количество осадков - Количество выпавших осадков за 24 часа, мм.
S - Снежный покров - Высота снежного покрова, см. При наведении курсора мыши на число - состояние снежного покрова и степень покрытия местности в баллах.